Location: Watson Lake
(60.1170°N, 128.8000°W)
Time: 11:57:03
(UTC-08:00)

Daily predictions for brighter satellites

Satellite Brightness Start Highest point End
(mag) Time Altitude Azimuth Time Altitude Azimuth Time Altitude Azimuth
Cosmos 2219 3.3 18:26:16 10° SW 18:31:56 86° NW 18:37:40 10° NE
FengYun 1-2 T 4.3 18:27:35 10° SE 18:33:01 63° ENE 18:38:28 10° NNW
H-2A R/B 2.8 18:31:51 10° SSE 18:35:42 61° ENE 18:39:32 10° N
Envisat 3.5 18:32:34 10° SE 18:37:16 39° ENE 18:42:00 10° N
Cosmos 921 Rocket 3.5 18:34:18 10° NNW 18:38:50 71° WSW 18:43:19 10° SSE
Aureole 3 3.7 18:34:30 10° S 18:39:00 46° E 18:42:37 10° NNE
NOSS 3-2 (C) 3.9 18:33:05 10° SSW 18:39:01 50° SE 18:45:42 10° ENE
Cosmos 2297 Rocket 2.4 18:33:42 10° SSW 18:39:12 55° ESE 18:44:45 10° NE
Cosmos 1812 3.4 18:35:42 10° NNW 18:39:33 61° W 18:43:22 10° S
CZ-4C R/B 2.9 18:33:16 10° WNW 18:39:50 84° SSW 18:47:27 10° SE
Cosmos 1939 Rocket 4.1 18:37:30 10° ESE 18:40:46 23° NE 18:44:02 10° N
Cosmos 1110 Rocket 4.0 18:36:32 10° NNW 18:41:52 83° ENE 18:47:11 10° SE
Cosmos 2084 Rocket 3.7 18:37:55 10° SW 18:42:04 53° SE 18:46:03 10° ENE
Cosmos 1603 4.0 18:38:34 10° NW 18:44:16 77° SW 18:49:54 10° SSE
Cosmos 1674 Rocket 4.3 18:41:16 10° NNW 18:45:34 58° W 18:49:49 10° S
USA 186 3.1 18:44:00 10° ESE 18:46:40 23° ENE 18:49:21 10° N
Cosmos 1833 Rocket 4.0 18:42:31 10° NW 18:47:21 28° N 18:52:11 10° ENE
Sich 1 Rocket 4.2 18:43:37 10° SSE 18:47:41 35° E 18:51:43 10° NNE
CENTAUR R/B 3.3 18:44:08 10° S 18:49:46 34° ESE 18:56:08 10° ENE
Cosmos 1607 4.4 18:46:24 10° W 18:52:50 60° NNW 18:59:18 10° ENE
USA 161 3.7 18:52:35 10° NNW 18:53:55 17° WNW 18:55:18 10° WSW
Meteor 1-4 Rocket 4.1 18:51:43 10° SE 18:54:01 16° E 18:56:23 10° NE
Iridium 4 Rocket 3.2 18:49:21 10° N 18:54:21 70° E 18:58:54 10° SSE
CZ-2C R/B 3.6 18:50:02 10° NNE 18:54:31 72° ESE 18:58:57 10° S
SJ-6B 3.0 18:51:01 10° SE 18:54:46 50° ENE 18:58:38 10° N
Okean 2 Rocket 4.1 18:53:38 10° SE 18:57:13 25° E 19:00:49 10° NNE
Cosmos 1464 Rocket 4.2 18:51:33 10° NNW 18:57:42 80° W 19:03:50 10° S
USA 267 3.5 18:51:41 10° ESE 18:58:13 69° S 19:04:46 10° W
Okean 1 3.5 18:56:48 10° NNW 19:00:50 80° W 19:04:49 10° S
Tsikada Rocket 4.5 18:55:10 10° SSE 19:01:04 40° E 19:06:57 10° NNE
CZ-2D R/B 3.5 18:58:34 10° SE 19:02:21 50° ENE 19:06:10 10° N
USA 32 4.2 18:57:56 10° SSE 19:02:58 49° E 19:08:01 10° NNE
COSMOS 2455 4.2 18:59:35 10° SE 19:03:10 16° ESE 19:06:36 10° ENE
Cosmos 2263 Rocket 3.7 19:01:14 10° SE 19:04:01 14° E 19:06:39 10° ENE
Meteor 1-13 Rocket 4.1 18:58:43 10° NNW 19:04:18 70° ENE 19:09:49 10° SSE
Cosmos 158 Rocket 4.0 19:00:58 10° S 19:05:41 52° ESE 19:10:28 10° NE
ALOS 3.6 19:01:58 10° S 19:06:28 45° W 19:10:59 10° NNW
Meteor 1-20 Rocket 4.3 19:00:50 10° S 19:06:32 62° E 19:12:19 10° NNE
Cosmos 1908 Rocket 3.6 19:02:31 10° S 19:06:55 59° E 19:11:19 10° NNE
Cosmos 1602 4.4 19:04:15 10° SSE 19:07:43 32° E 19:11:12 10° NNE
Cosmos 1733 Rocket 3.3 19:05:02 10° SSW 19:09:21 73° WNW 19:13:43 10° NNE
ATLAS CENTAUR R/B 2.1 19:05:37 10° WNW 19:09:32 52° SW 19:13:43 10° SSE
Cosmos 1331 Rocket 4.3 19:05:24 10° NW 19:10:44 76° WSW 19:16:03 10° SSE
Cosmos 2082 3.7 19:06:10 10° SSW 19:11:48 75° SE 19:17:30 10° NE
Landsat 4 3.8 19:09:23 10° NNE 19:13:06 54° ESE 19:16:48 10° S
EO 1 Del DPAF 3.4 19:10:02 10° NNE 19:13:47 48° E 19:17:31 10° S
GEOS 3 Rocket 4.2 19:10:06 11° ENE 19:15:15 55° N 19:20:31 10° W
YAOGAN 6 3.3 19:11:59 10° SE 19:15:15 33° ENE 19:18:31 10° N
SKYMED 2 3.6 19:12:36 10° NNE 19:17:00 89° WNW 19:21:21 10° SSW
ARGOS 4.3 19:13:34 14° E 19:17:05 26° NE 19:21:31 10° N
ERS-1 Rocket 4.3 19:15:42 15° E 19:18:24 22° NE 19:22:16 10° N
Cosmos 1633 2.4 19:16:36 10° S 19:20:12 86° E 19:23:50 10° NNE
MTI 3.6 19:17:16 10° NNE 19:20:30 77° ESE 19:23:42 10° SSW
Cosmos 2279 Rocket 4.3 19:16:12 10° N 19:22:11 45° ENE 19:28:09 10° SE
ATLAS 3B R/B 2.8 19:15:22 10° WSW 19:22:29 85° NNW 19:29:02 11° ENE
Cosmos 1975 Rocket 3.4 19:18:56 10° NNW 19:23:23 72° W 19:27:50 10° S
ARGOS Delta rocket 4.4 19:20:37 10° NNE 19:25:09 35° E 19:29:26 10° SSE
Meteor 1-14 Rocket 4.4 19:19:26 10° SSW 19:25:21 87° ESE 19:31:23 10° NNE
Spot 2 Rocket 3.7 19:21:48 10° SE 19:26:42 51° ENE 19:31:38 10° NNW
Meteor 2-4 Rocket 3.7 19:22:44 10° NNW 19:28:39 84° ENE 19:34:21 10° SSE
H-2A R/B 3.3 19:27:54 17° E 19:30:42 26° NE 19:35:09 10° N
Cosmos 1174 3.7 19:28:02 10° NW 19:32:24 69° NNE 19:34:34 23° ESE
Cosmos 1048 Rocket 4.0 19:27:35 10° SSW 19:32:46 59° ESE 19:37:55 10° NE
Cosmos 1184 Rocket 2.8 19:29:52 10° NNW 19:33:11 81° WSW 19:36:29 10° SSE
NOSS 3-2 (A) 3.6 19:27:07 10° WSW 19:33:26 85° SSE 19:40:10 12° ENE
Cosmos 1437 Rocket 2.8 19:30:35 10° S 19:34:38 62° E 19:38:44 10° NNE
Resurs 1-3 3.6 19:32:51 10° SSE 19:37:12 63° ENE 19:41:34 10° NNW
Cosmos 2082 Rocket 3.3 19:33:27 10° NW 19:38:25 31° NNE 19:41:59 16° ENE
Cosmos 1340 Rocket 3.6 19:34:58 10° N 19:38:37 31° ENE 19:40:03 24° E
Cosmos 1515 3.8 19:38:59 10° N 19:42:43 49° ENE 19:45:13 19° SE
Cosmos 1536 3.5 19:39:27 10° SSE 19:43:05 32° E 19:46:45 10° NNE
Cosmos 1302 Rocket 4.2 19:37:55 10° NW 19:43:09 72° WSW 19:48:19 10° SSE
Meteor 1-25 Rocket 4.3 19:39:01 10° SSW 19:44:35 79° WNW 19:50:16 10° NNE
Cosmos 1634 Rocket 3.9 19:39:13 10° NNW 19:45:26 81° ENE 19:51:37 10° SSE
Cosmos 2251 Rocket 4.4 19:41:32 10° SSE 19:45:48 26° E 19:50:06 10° NE
Cosmos 1300 Rocket 4.4 19:45:22 24° ESE 19:46:25 27° E 19:50:05 10° NNE
Cosmos 1943 4.0 19:41:56 10° NW 19:47:26 53° WSW 19:52:55 10° SSE
Terra 3.6 19:46:52 14° NE 19:47:56 15° NE 19:50:38 10° N
SeaSat 1 2.9 19:43:06 10° SSE 19:47:59 61° WSW 19:52:55 10° NW
Okean 2 3.7 19:45:28 10° N 19:49:29 45° ENE 19:51:29 25° SE
NOAA 11 4.3 19:47:14 15° SE 19:51:42 56° ENE 19:57:01 10° NNW
ERS-2 3.9 19:49:40 10° SSW 19:53:05 35° W 19:56:32 10° NNW
USA 238 DEB 3.9 19:46:20 10° WSW 19:53:19 77° NNW 19:59:01 17° ENE
USA 238 3.9 19:46:25 10° WSW 19:53:24 77° NNW 19:59:07 17° ENE
Cosmos 1536 Rocket 3.5 19:49:30 10° NNW 19:53:58 85° ENE 19:58:22 10° SSE
Cosmos 2142 Rocket 4.5 19:51:02 10° NNW 19:57:28 84° ENE 20:03:47 10° SSE
Cosmos 1816 Rocket 4.4 19:51:43 10° S 19:58:03 75° E 20:04:24 10° NNE
Okean 1-7 Rocket 4.1 19:54:50 10° N 19:58:59 38° ENE 20:00:14 31° ESE
Resurs 01 Rocket 1.6 19:54:43 10° SSE 19:59:09 90° ENE 20:03:38 10° NNW
Cosmos 1025 Rocket 3.2 19:55:02 10° N 19:59:21 51° ENE 20:01:23 28° SE
COSMOS 2406 3.3 19:54:08 10° NW 19:59:46 61° NE 20:02:51 27° ESE
Alouette 2 Rocket 3.7 19:56:31 10° S 20:00:03 46° E 20:04:37 10° NNE
Meteor 1-11 Rocket 3.7 19:57:44 10° S 20:03:18 62° E 20:09:03 10° NNE
DNEPR-1 R/B 3.7 19:59:01 10° WSW 20:03:22 79° NNW 20:06:39 21° ENE
COSMO-SKYMED 1 4.0 20:00:54 10° N 20:05:00 41° WNW 20:09:04 10° SW
Cosmos 1782 Rocket 3.7 20:00:49 10° SSW 20:05:14 75° WNW 20:09:40 10° NNE
CRYOSAT 2 4.4 20:01:11 10° N 20:06:07 83° W 20:10:58 10° S
Cosmos 2227 Rocket 2.9 20:04:38 10° WSW 20:10:12 54° NW 20:15:47 10° NE
Cosmos 1939 Rocket 3.1 20:11:20 11° S 20:15:22 74° WSW 20:19:28 10° NNW
Envisat 3.8 20:11:16 10° S 20:16:14 53° W 20:21:15 10° NNW
USA 186 2.7 20:13:59 10° S 20:17:13 50° W 20:20:30 10° NNW
SL-24 DEB 4.1 20:15:01 10° N 20:19:38 62° E 20:23:28 14° S
MetOp-A 4.2 20:18:34 32° SE 20:20:50 56° ENE 20:26:06 10° NNW
Cosmos 2084 Rocket 3.5 20:17:23 10° W 20:21:34 68° NNW 20:22:56 39° NE
SPOT 5 3.7 20:20:51 33° E 20:21:59 36° NE 20:26:51 10° N
Cosmos 494 Rocket 3.9 20:17:27 10° SSW 20:22:34 61° ESE 20:27:40 10° NE
Cosmos 2297 Rocket 3.0 20:17:51 10° WSW 20:23:24 52° NW 20:28:59 10° NE
CZ-4C R/B 4.0 20:21:49 10° WNW 20:28:03 39° SW 20:35:04 10° SSE
Meteor 1-4 Rocket 2.7 20:25:05 10° SSW 20:28:40 74° WNW 20:32:21 10° NNE
NOSS 3-2 (C) 3.7 20:23:18 10° WSW 20:29:44 82° NNW 20:34:42 22° ENE
Thor Agena Rocket 3.4 20:25:40 10° NNE 20:30:49 82° ESE 20:35:54 10° SSW
Cosmos 1833 Rocket 3.4 20:27:18 10° NW 20:32:40 41° NNE 20:34:26 33° ENE
Okean 2 Rocket 3.5 20:30:35 10° SSW 20:34:58 64° WNW 20:39:25 10° N
Cosmos 332 Rocket 4.5 20:33:57 10° NNW 20:38:30 38° NE 20:39:03 37° ENE
Cosmos 1269 Rocket 4.2 20:34:20 10° SW 20:39:36 71° NW 20:44:55 10° NNE
Cosmos 2180 Rocket 4.5 20:33:26 10° NNW 20:39:41 86° WSW 20:44:54 16° S
CENTAUR R/B 2.6 20:33:11 10° SW 20:39:43 82° SSE 20:44:56 22° ENE
Cosmos 1607 4.3 20:34:25 10° WNW 20:40:54 62° NNE 20:43:36 36° E
USA 267 3.8 20:38:34 28° SSE 20:41:52 49° SSW 20:48:12 10° WNW
Helios 1A 3.2 20:42:28 51° NE 20:42:28 51° NE 20:46:26 10° N
Cosmos 2151 Rocket 3.6 20:40:20 10° SSW 20:44:49 84° WNW 20:49:18 10° NNE
Cosmos 1356 Rocket 4.0 20:41:38 10° N 20:45:00 42° NE 20:45:00 42° NE
Cosmos 2263 Rocket 2.2 20:41:21 10° SSW 20:46:46 53° ESE 20:48:38 37° ENE
ATLAS CENTAUR R/B 4.2 20:45:40 10° W 20:47:49 14° WSW 20:50:01 10° SSW
COSMOS 2455 2.9 20:42:05 10° SSW 20:47:56 55° SE 20:49:51 39° ENE
YAOGAN 6 4.1 20:46:21 16° SSW 20:48:48 36° W 20:52:09 10° NNW
Cosmos 1992 Rocket 4.4 20:43:52 10° NW 20:49:04 60° WSW 20:51:38 29° S
SL-08 RB Rocket 3.7 20:51:59 63° E 20:52:19 66° ENE 20:56:59 10° NNW
GEOS 3 Rocket 4.0 20:51:12 40° ENE 20:52:55 58° NNE 20:58:15 10° WNW
SPOT 1/Viking Rocket 3.7 20:54:33 50° ENE 20:54:51 50° ENE 20:59:51 10° NNW
ERS-1 Rocket 2.9 20:55:41 59° SE 20:56:33 75° ENE 21:01:38 10° NNW
ARGOS 3.1 20:55:04 46° SSE 20:56:47 85° ENE 21:02:15 10° NNW
Cosmos 1892 Rocket 3.5 20:52:54 10° N 20:57:15 68° ENE 20:57:15 68° ENE
Cosmos 371 Rocket 3.7 21:01:50 10° NNW 21:06:32 49° NE 21:06:32 49° NE
Okean 1 Rocket 4.0 21:09:05 36° NNE 21:09:05 36° NNE 21:11:43 10° NNE
Landsat 7 4.3 21:09:06 45° NE 21:09:06 45° NE 21:13:07 10° N
H-2A R/B 2.0 21:08:31 61° SSE 21:09:32 84° ENE 21:15:03 10° NNW
ATLAS 3B R/B 2.9 21:06:46 10° W 21:13:43 65° N 21:16:17 39° ENE
Cosmos 1340 Rocket 3.7 21:11:24 10° NNW 21:15:16 45° W 21:15:41 43° WSW
MetOp-B 4.2 21:17:03 52° S 21:18:21 75° WSW 21:23:45 10° NNW
Cosmos 1536 4.0 21:15:34 10° SW 21:19:28 43° WNW 21:23:24 10° N
Cosmos 2227 4.5 21:14:11 10° SW 21:19:52 68° NW 21:25:34 10° NE
ASTEX 1 3.4 21:15:28 10° N 21:19:56 67° NE 21:19:56 67° NE
USA 245 4.5 21:21:41 52° SSE 21:23:23 87° WSW 21:29:55 10° NNW
Cosmos 2082 Rocket 2.3 21:17:58 10° NW 21:23:34 59° NE 21:23:50 58° NE
Cosmos 1300 Rocket 4.1 21:22:13 33° SW 21:23:56 57° WNW 21:28:16 10° N
NOSS 3-2 (A) 3.9 21:18:09 10° W 21:24:44 68° N 21:27:33 39° ENE
Terra 2.6 21:25:45 41° NNE 21:25:45 41° NNE 21:29:20 10° N
Cosmos 2251 Rocket 3.5 21:22:21 10° SW 21:27:37 82° NW 21:32:55 10° NNE
Meteor 1-21 4.2 21:22:55 10° NNW 21:28:49 87° WSW 21:29:32 70° S
Resurs 01 Rocket 4.2 21:33:08 10° SW 21:36:17 19° W 21:39:27 10° NW
CZ-2C R/B 3.9 21:43:12 42° NE 21:43:12 42° NE 21:47:39 10° N
H-2A R/B 4.4 21:45:08 15° NNE 21:45:08 15° NNE 21:46:14 10° N
COSMOS 2406 3.9 21:38:39 10° NW 21:44:01 45° WSW 21:44:57 41° SW
USA 238 DEB 3.9 21:37:52 10° WNW 21:44:53 70° N 21:46:28 54° ENE
USA 238 3.9 21:37:58 10° WNW 21:44:59 70° N 21:46:34 54° ENE
Meteor 2-20 Rocket 4.5 21:45:28 43° SSW 21:47:38 79° WNW 21:53:52 10° NNE
DNEPR-1 R/B 4.5 21:46:45 10° WNW 21:50:59 51° N 21:50:59 51° N
Nadezhda 4 Rocket 3.9 21:53:26 66° SSW 21:54:25 85° WNW 22:00:49 10° NNE
Cosmos 2227 Rocket 3.8 21:50:27 10° WNW 21:55:24 30° NNW 21:58:50 17° NE
SPOT 5 3.4 22:00:05 62° W 22:00:05 62° W 22:05:10 10° NNW
Cosmos 1932 4.4 21:55:18 10° WNW 22:01:44 77° NNE 22:01:44 77° NNE
Timation 2 Rocket 4.2 21:58:27 10° NW 22:04:18 54° NNE 22:04:18 54° NNE
Cosmos 1092 Rocket 4.0 22:05:31 75° NNE 22:05:31 75° NNE 22:11:17 10° NNE
Cosmos 2297 Rocket 3.9 22:03:41 10° WNW 22:08:38 29° NNW 22:11:48 18° NE
Cosmos 1833 Rocket 3.1 22:11:25 10° NW 22:16:08 61° NW 22:16:08 61° NW
Cosmos 1553 Rocket 4.0 22:13:45 10° NNW 22:19:33 77° NNW 22:19:33 77° NNW
NOSS 3-2 (C) 3.9 22:14:33 10° W 22:21:14 68° N 22:22:09 62° NE
Cosmos 1607 4.2 22:22:00 10° WNW 22:27:43 68° W 22:27:43 68° W
S3M 4.2 22:24:25 10° NNW 22:30:02 70° NW 22:30:02 70° NW
Cosmos 2263 Rocket 2.8 22:25:20 10° WSW 22:35:41 14° NE 22:36:22 10° NE
CENTAUR R/B 3.0 22:23:57 10° W 22:30:49 70° N 22:32:08 59° NE
GEOS 3 Rocket 4.4 22:32:18 51° WNW 22:32:18 51° WNW 22:36:21 10° WNW
COSMOS 2455 3.3 22:27:54 10° WSW 22:33:06 58° WNW 22:33:06 58° WNW
H-2A R/B 3.8 22:49:08 25° W 22:49:36 26° W 22:54:08 10° NNW
Terra 3.7 23:04:38 26° NW 23:04:38 26° NW 23:07:07 10° NNW
ATLAS 3B R/B 3.0 22:58:03 10° WNW 23:03:33 60° NW 23:03:33 60° NW
Cosmos 2082 Rocket 3.6 23:02:16 10° NW 23:05:41 33° WNW 23:05:41 33° WNW
NOSS 3-2 (A) 4.1 23:09:18 10° WNW 23:14:57 63° NW 23:14:57 63° NW
USA 238 DEB 4.4 23:29:07 10° WNW 23:33:54 47° WNW 23:33:54 47° WNW
USA 238 4.4 23:29:12 10° WNW 23:34:00 47° WNW 23:34:00 47° WNW
Cosmos 2227 Rocket 3.8 23:36:05 10° NW 23:40:40 30° N 23:40:40 30° N
Cosmos 2297 Rocket 3.8 23:49:14 10° NW 23:53:36 30° N 23:53:36 30° N
